Piarco, Trinidad And Tobago

9:47 PM AST on May 22, 2017 (GMT -0400)
Piarco International

Weather History for TTPP - August, 2014

Change the Weather History Date:

Tuesday, August 12, 2014

  Actual Average Record
Temperature  
Mean Temperature 83 °F -  
Max Temperature 91 °F 87 °F 94 °F (2015)
Min Temperature 75 °F 73 °F 73 °F (1996)
Cooling Degree Days 18    
Growing Degree Days 33 (Base 50)    
Moisture  
Dew Point 75 °F    
Average Humidity 80    
Maximum Humidity 94    
Minimum Humidity 46    
Precipitation  
Precipitation 0.87 in 0.30 in - ()
Sea Level Pressure  
Sea Level Pressure 29.95 in    
Wind  
Wind Speed 4 mph ()    
Max Wind Speed 17 mph    
Max Gust Speed 21 mph    
Visibility 6.1 miles    
Events Rain , Thunderstorm    
Averages and records for this station are not official NWS values.
T = Trace of Precipitation, MM = Missing Value Source: Averaged Metar Reports

Daily Weather History Graph

Daily Weather History Graph

Search for Another Location

Airport or City:

Trip Planner

Search our weather history database for the weather conditions in past years. The results will help you decide how hot, cold, wet, or windy it might be!

Date:

Astronomy

Aug. 12, 2014 Rise Set
Actual Time 5:55 AM AST 6:25 PM AST
Civil Twilight 5:33 AM AST 6:47 PM AST
Nautical Twilight 5:08 AM AST 7:12 PM AST
Astronomical Twilight 4:42 AM AST 7:38 PM AST
Moon 8:07 PM AST (8/12) 7:35 AM AST (8/12)
Length of Visible Light 13h 13m
Length of Day
12h 29m
Waning Gibbous, 95% of the Moon is Illuminated
Aug 12
Waning Gibbous
Aug 17
Last Quarter
Aug 25
New
Sep 2
First Quarter
Sep 8
Full

Hourly Weather History & Observations

Time (AST) Temp. Heat Index Dew Point Humidity Pressure Visibility Wind Dir Wind Speed Gust Speed Precip Events Conditions
12:00 AM 77.0 °F - 73.4 °F 89% 29.95 in 6.2 mi Calm Calm - N/A   Partly Cloudy
1:00 AM 77.0 °F - 73.4 °F 89% 29.95 in 6.2 mi Calm Calm - N/A   Partly Cloudy
2:00 AM 77 °F - 74 °F 90% 29.95 in 12 mi Calm Calm - -   Scattered Clouds
2:00 AM 77.0 °F - 75.2 °F 94% 29.95 in 6.2 mi Calm Calm - N/A   Partly Cloudy
3:00 AM 77.0 °F - 75.2 °F 94% 29.92 in 6.2 mi Calm Calm - N/A   Partly Cloudy
4:00 AM 77.0 °F - 75.2 °F 94% 29.95 in 6.2 mi Calm Calm - N/A Rain Light Rain Showers
4:49 AM 75.2 °F - 73.4 °F 94% 29.98 in 2.5 mi SSE 4.6 mph 20.7 mph N/A Rain Rain Showers
5:00 AM 78 °F - 75 °F 86% 29.98 in 1 mi SSE 17.3 mph - - Rain Heavy Rain Showers
5:00 AM 77.0 °F - 75.2 °F 94% 29.98 in 1.2 mi SSE 17.3 mph - N/A Rain Rain Showers
5:06 AM 75.2 °F - 73.4 °F 94% - 3.1 mi WNW 11.5 mph - N/A Rain , Thunderstorm Light Thunderstorms and Rain
5:10 AM 75.2 °F - 73.4 °F 94% 29.95 in 3.7 mi ESE 3.5 mph - N/A Rain , Thunderstorm Light Thunderstorms and Rain
5:21 AM 77.0 °F - 73.4 °F 89% 29.95 in 6.2 mi Calm Calm - N/A   Scattered Clouds
6:00 AM 77.0 °F - 73.4 °F 89% 29.95 in 6.2 mi Calm Calm - N/A   Partly Cloudy
7:00 AM 77.0 °F - 75.2 °F 94% 29.95 in 6.2 mi Calm Calm - N/A   Scattered Clouds
8:00 AM 77 °F - 73 °F 85% 29.99 in 4 mi Calm Calm - - Rain Light Rain Showers
8:00 AM 77.0 °F - 73.4 °F 89% 29.98 in 6.2 mi Calm Calm - N/A Rain Light Rain Showers
9:00 AM 86.0 °F 95.1 °F 75.2 °F 70% 29.98 in 6.2 mi ESE 4.6 mph - N/A   Partly Cloudy
10:00 AM 89.6 °F 99.8 °F 75.2 °F 62% 29.98 in 6.2 mi ESE 8.1 mph - N/A   Partly Cloudy
10:20 AM 87.8 °F 97.6 °F 75.2 °F 66% 2.98 in 1.9 mi SSE 16.1 mph - N/A Rain Light Rain Showers
11:00 AM 86 °F - 76 °F 66% 30.01 in 11 mi SSE 8.1 mph - -   Scattered Clouds
11:00 AM 86.0 °F 96.9 °F 77.0 °F 74% 30.01 in 6.2 mi SSE 8.1 mph - N/A   Partly Cloudy
12:00 PM 89.6 °F 99.8 °F 75.2 °F 62% 29.98 in 6.2 mi ESE 13.8 mph - N/A   Mostly Cloudy
2:00 PM 91 °F - 73 °F 46% 29.93 in 11 mi East 13.8 mph - -   Mostly Cloudy
2:00 PM 91.4 °F 100.1 °F 73.4 °F 55% 29.92 in 6.2 mi East 13.8 mph - N/A   Mostly Cloudy
3:00 PM 86.0 °F 95.1 °F 75.2 °F 70% 29.92 in 6.2 mi SE 11.5 mph - N/A   Mostly Cloudy
4:00 PM 89.6 °F 99.8 °F 75.2 °F 62% 29.89 in 6.2 mi SE 11.5 mph - N/A   Scattered Clouds
5:00 PM 87.8 °F 95.6 °F 73.4 °F 62% 29.92 in 6.2 mi East 13.8 mph - N/A   Scattered Clouds
6:00 PM 84.2 °F 92.3 °F 75.2 °F 74% 29.92 in 6.2 mi East 10.4 mph - N/A   Partly Cloudy
7:00 PM 82.4 °F 89.5 °F 75.2 °F 79% 29.92 in 6.2 mi Calm Calm - N/A   Partly Cloudy
8:00 PM 81 °F - 75 °F 78% 29.94 in 9 mi Calm Calm - - Rain Light Rain Showers
8:00 PM 80.6 °F 86.2 °F 75.2 °F 84% 29.92 in 6.2 mi Calm Calm - N/A Rain Light Rain Showers
9:00 PM 80.6 °F 86.2 °F 75.2 °F 84% 29.95 in 6.2 mi Calm Calm - N/A   Scattered Clouds
10:00 PM 78.8 °F - 75.2 °F 89% 29.98 in 6.2 mi Calm Calm - N/A   Partly Cloudy
11:00 PM 79 °F - 75 °F 83% 29.97 in 11 mi Calm Calm - -   Haze
11:00 PM 78.8 °F - 75.2 °F 89% 29.95 in 6.2 mi Calm Calm - N/A   Partly Cloudy